This is the latest recevied weather packets stored in our database for station/object KK6LZB. If no packets are shown the sender has not sent any weather packets the latest 10 day(s).
| Time | Temp. | Humidity | Pressure | Rain* | Wind** | Luminosity | Snow |
|---|---|---|---|---|---|---|---|
| 1788145842 | 72° F | 96% | 760.5 mmHg | 0 in | - | 0 W/m² | - |
| 1788145541 | 72° F | 95% | 760.2 mmHg | 0 in | - | 0 W/m² | - |
| 1788145240 | 72° F | 95% | 760.2 mmHg | 0 in | - | 0 W/m² | - |
| 1788144939 | 72° F | 95% | 760.1 mmHg | 0 in | - | 0 W/m² | - |
| 1788144634 | 72° F | 94% | 760.3 mmHg | 0 in | - | 0 W/m² | - |
| 1788144330 | 73° F | 94% | 760 mmHg | 0 in | - | 0 W/m² | - |
| 1788144029 | 73° F | 94% | 760 mmHg | 0 in | - | 0 W/m² | - |
| 1788143727 | 73° F | 93% | 759.9 mmHg | 0 in | - | 0 W/m² | - |
| 1788143427 | 73° F | 93% | 760 mmHg | 0 in | - | 0 W/m² | - |
| 1788143127 | 73° F | 92% | 760 mmHg | 0 in | - | 1 W/m² | - |
| 1788142822 | 74° F | 91% | 759.8 mmHg | 0 in | - | 2 W/m² | - |
| 1788142521 | 74° F | 91% | 759.8 mmHg | 0 in | - | 3 W/m² | - |
| 1788142217 | 75° F | 90% | 760 mmHg | 0 in | - | 5 W/m² | - |
| 1788141912 | 75° F | 88% | 759.9 mmHg | 0 in | - | 8 W/m² | - |
| 1788141607 | 75° F | 87% | 759.9 mmHg | 0 in | - | 9 W/m² | - |
| 1788141303 | 75° F | 87% | 759.9 mmHg | 0 in | - | 12 W/m² | - |
| 1788140997 | 77° F | 85% | 759.8 mmHg | 0 in | - | 17 W/m² | - |
| 1788140692 | 77° F | 83% | 759.9 mmHg | 0 in | - | 22 W/m² | - |
| 1788140388 | 77° F | 82% | 760 mmHg | 0 in | - | 30 W/m² | - |
| 1788140084 | 78° F | 82% | 760 mmHg | 0 in | - | 31 W/m² | - |
| 1788139783 | 78° F | 82% | 760.1 mmHg | 0 in | - | 31 W/m² | - |
| 1788139479 | 79° F | 81% | 760 mmHg | 0 in | - | 43 W/m² | - |
| 1788139178 | 80° F | 80% | 760 mmHg | 0 in | - | 58 W/m² | - |
| 1788138874 | 80° F | 80% | 760 mmHg | 0 in | - | 67 W/m² | - |
| 1788138570 | 80° F | 81% | 760 mmHg | 0 in | - | 76 W/m² | - |
* Rain latest hour (hover to see other rain measurements)
** Current wind speed in m/s (hover to see current wind gust speed)